Home   Weather   40°55'N, 72°41'W   Past weeks
Flag for USA

Past Weather in 40°55'N, 72°41'W, USA — Yesterday and Last 2 Weeks

Now
76 °F

Sunny.


Feels Like: 78 °F
Forecast: 78 / 56 °F
Wind: 14 mph from South

Location: Tweed-New Haven Airport

Current Time: Jun 15, 2019 at 4:47:53 pm

Latest Report: Jun 15, 2019 at 3:53 pm


Visibility: 10 mi

Pressure: 29.99 "Hg

Humidity: 62%

Dew Point: 62 °F

Location of 40°55'N, 72°41'WLocation

Past Weather in 40°55'N, 72°41'W — Graph

°F

40°55'N, 72°41'W Temperature Yesterday

Maximum temperature yesterday: 74 °F (at 5:53 pm)
Minimum temperature yesterday: 56 °F (at 11:53 pm)
Average temperature yesterday: 65 °F

High & Low Weather Summary for the Past Weeks

 TemperatureHumidityPressure
High85 °F (Jun 6, 3:53 pm)97% (Jun 10, 9:53 pm)30.35 "Hg (Jun 10, 9:53 pm)
Low45 °F (Jun 4, 4:53 am)27% (Jun 12, 3:53 pm)29.64 "Hg (Jun 2, 5:53 pm)
Average66 °F72%29.94 "Hg
* Reported May 31 2:53 pm — Jun 15 2:53 pm, 40°55'N, 72°41'W. Weather by CustomWeather, © 2019

Note: Actual official high and low records may vary slightly from our data, if they occured in-between our weather recording intervals... More about our weather records

Advertising

40°55'N, 72°41'W Weather History for the Previous 24 Hours

Scroll right to see more
 ConditionsComfort  
Time TempWeatherWind HumidityBarometerVisibility
2:53 pm
Sat, Jun 15
78 °FSunny.13 mph56%30.01 "Hg10 mi
1:53 pm77 °FScattered clouds.15 mph52%30.04 "Hg10 mi
12:53 pm74 °FScattered clouds.10 mph53%30.07 "Hg10 mi
11:53 am74 °FScattered clouds.12 mph46%30.09 "Hg10 mi
10:53 am71 °FScattered clouds.9 mph51%30.11 "Hg10 mi
9:53 am70 °FScattered clouds.12 mph57%30.12 "Hg10 mi
8:53 am68 °FPartly sunny.7 mph59%30.13 "Hg10 mi
7:53 am64 °FScattered clouds.6 mph61%30.13 "Hg10 mi
6:53 am62 °FScattered clouds.7 mph65%30.12 "Hg10 mi
5:53 am54 °FScattered clouds.No wind86%30.11 "Hg10 mi
4:53 am59 °FClear.No wind69%30.10 "Hg10 mi
3:53 am62 °FClear.5 mph65%30.10 "Hg10 mi
2:53 am64 °FClear.3 mph61%30.08 "Hg10 mi
1:53 am65 °FClear.6 mph61%30.06 "Hg10 mi
12:53 am62 °FClear.No wind67%30.05 "Hg10 mi
11:53 pm
Fri, Jun 14
56 °FClear.No wind84%30.03 "Hg10 mi
10:53 pm59 °FClear.No wind78%30.01 "Hg10 mi
9:53 pm60 °FClear.No wind72%30.00 "Hg10 mi
8:53 pm63 °FClear.No wind65%29.96 "Hg10 mi
7:53 pm72 °FSunny.5 mph38%29.94 "Hg10 mi
6:53 pm73 °FScattered clouds.6 mph43%29.92 "Hg10 mi
5:53 pm74 °FSunny.8 mph38%29.89 "Hg10 mi
4:53 pm72 °FScattered clouds.9 mph43%29.88 "Hg10 mi
Weather by CustomWeather, © 2019

See weather overview